Flag for Germany Weather past 2 weeks in Nuremberg, Bavaria, Germany

Now
55 °F

Scattered clouds.


Feels Like: 55 °F
Forecast: 38 / 55 °F
Wind: 5 mph from North

Location: Nuernberg

Current Time: Oct 24, 2014 at 1:47:01 PM

Latest Report: Oct 24, 2014 at 1:20 PM


Visibility: N/A

Pressure: 30.18 "Hg

Humidity: 59%

Dew point: 41 °F

Location of NurembergLocation

Historic Weather in Nuremberg — Graph

°F

Nuremberg temperature yesterday

Maximum temperature yesterday: 50 °F (at 4:50 PM)
Minimum temperature yesterday: 45 °F (at 3:50 AM)
Average temperature yesterday: 47 °F

Past Weeks' High & Low Weather Summary

 TemperatureHumidityPressure
High77 °F (Oct 9, 2:20 PM)100% (Oct 10, 3:20 AM)30.24 "Hg (Oct 10, 3:20 AM)
Low43 °F (Oct 18, 6:50 AM)44% (Oct 9, 3:20 PM)29.56 "Hg (Oct 21, 8:20 PM)
Average56 °F89%29.96 "Hg
* Reported Oct 9 12:20 PM — Oct 24 12:50 PM, Nuremberg, Weather by CustomWeather, © 2014

Note: Actual official high and low records may vary slightly from our data, if they occured in-between our weather recording intervals... More about our weather records

Advertising

Nuremberg weather history for previous 24 hours

 ConditionsComfort  
Time TempWeatherWind HumidityBarometerVisibility
12:50 PM
Oct 24
55 °FScattered clouds.5 mph67%30.21 "HgN/A
12:20 PM54 °FScattered clouds.5 mph72%30.21 "HgN/A
11:50 AM52 °FScattered clouds.5 mph77%30.21 "HgN/A
11:20 AM50 °FBroken clouds.6 mph82%30.21 "HgN/A
10:50 AM48 °FPartly sunny.1 mph87%30.24 "HgN/A
10:20 AM48 °FPartly sunny.2 mph87%30.24 "HgN/A
9:50 AM46 °FPartly sunny.5 mph100%30.24 "HgN/A
9:20 AM45 °FPartly sunny.3 mph100%30.24 "HgN/A
8:50 AM45 °FPartly sunny.1 mph100%30.24 "HgN/A
8:20 AM43 °FFog.1 mph100%30.21 "Hg6 mi
7:50 AM43 °FFog.1 mph100%30.21 "Hg6 mi
7:20 AM45 °FPassing clouds.1 mph100%30.21 "HgN/A
6:50 AM45 °FPassing clouds.1 mph100%30.21 "HgN/A
6:20 AM45 °FPassing clouds.1 mph100%30.21 "HgN/A
5:50 AM45 °FPassing clouds.2 mph100%30.21 "HgN/A
5:20 AM45 °FPassing clouds.1 mph100%30.21 "HgN/A
4:50 AM46 °FPassing clouds.1 mph93%30.21 "HgN/A
4:20 AM46 °FPassing clouds.1 mph93%30.21 "HgN/A
3:50 AM46 °FPassing clouds.2 mph93%30.21 "HgN/A
3:20 AM46 °FPassing clouds.2 mph93%30.21 "HgN/A
2:50 AM46 °FPassing clouds.1 mph93%30.24 "HgN/A
2:20 AM46 °FPassing clouds.2 mph93%30.24 "HgN/A
1:50 AM46 °FPassing clouds.1 mph93%30.24 "HgN/A
1:20 AM46 °FPassing clouds.1 mph93%30.24 "HgN/A
12:50 AM46 °FPassing clouds.1 mph93%30.24 "HgN/A
12:20 AM46 °FPassing clouds.1 mph93%30.21 "HgN/A
11:50 PM
Oct 23
46 °FPassing clouds.2 mph93%30.21 "HgN/A
11:20 PM46 °FPassing clouds.2 mph93%30.24 "HgN/A
10:50 PM46 °FPassing clouds.1 mph93%30.24 "HgN/A
10:20 PM46 °FPassing clouds.2 mph93%30.24 "HgN/A
9:50 PM45 °FPassing clouds.1 mph100%30.24 "HgN/A
9:20 PM46 °FPassing clouds.2 mph93%30.21 "HgN/A
8:50 PM48 °FPassing clouds.1 mph87%30.21 "HgN/A
8:20 PM48 °FPassing clouds.2 mph87%30.21 "HgN/A
7:50 PM48 °FPassing clouds.1 mph87%30.21 "HgN/A
7:20 PM48 °FPassing clouds.2 mph87%30.21 "HgN/A
6:50 PM48 °FPartly sunny.1 mph87%30.21 "HgN/A
6:20 PM50 °FPartly sunny.1 mph82%30.21 "HgN/A
5:50 PM50 °FBroken clouds.2 mph82%30.18 "HgN/A
5:20 PM50 °FPartly sunny.2 mph82%30.21 "HgN/A
4:50 PM50 °FPartly sunny.2 mph82%30.21 "HgN/A
4:20 PM48 °FPartly sunny.5 mph87%30.21 "HgN/A
3:50 PM48 °FPartly sunny.7 mph87%30.18 "HgN/A
3:20 PM48 °FPartly sunny.9 mph82%30.18 "HgN/A
2:50 PM48 °FPartly sunny.13 mph82%30.18 "HgN/A
2:20 PM48 °FPartly sunny.9 mph87%30.18 "HgN/A
1:50 PM48 °FPartly sunny.7 mph82%30.21 "HgN/A
1:20 PM48 °FPartly sunny.7 mph82%30.18 "HgN/A
Weather by CustomWeather, © 2014

See weather overviewHow to use our weather pages